This is the latest recevied weather packets stored in our database for station/object KI5NXU. If no packets are shown the sender has not sent any weather packets the latest 10 day(s).
| Time | Temp. | Humidity | Pressure | Rain* | Wind** | Luminosity | Snow |
|---|---|---|---|---|---|---|---|
| 1777732190 | 16.11° C | 78% | 1021.4 hPa | 0 mm | - | 352 W/m² | - |
| 1777731887 | 15.56° C | 79% | 1021.7 hPa | 0 mm | - | 339 W/m² | - |
| 1777731584 | 15.56° C | 80% | 1021.7 hPa | 0 mm | - | 319 W/m² | - |
| 1777731282 | 15.56° C | 80% | 1021.7 hPa | 0 mm | - | 271 W/m² | - |
| 1777730979 | 15° C | 81% | 1021.5 hPa | 0 mm | - | 261 W/m² | - |
| 1777730677 | 15° C | 82% | 1021.6 hPa | 0 mm | - | 262 W/m² | - |
| 1777730373 | 14.44° C | 81% | 1021.5 hPa | 0 mm | - | 241 W/m² | - |
| 1777730069 | 14.44° C | 82% | 1021.3 hPa | 0 mm | - | 233 W/m² | - |
| 1777729765 | 14.44° C | 82% | 1021.2 hPa | 0 mm | - | 221 W/m² | - |
| 1777729462 | 13.89° C | 83% | 1021.4 hPa | 0 mm | - | 206 W/m² | - |
| 1777729159 | 13.89° C | 83% | 1021.1 hPa | 0 mm | - | 186 W/m² | - |
| 1777728856 | 13.89° C | 84% | 1021.2 hPa | 0 mm | - | 176 W/m² | - |
| 1777728553 | 13.33° C | 85% | 1021.1 hPa | 0 mm | - | 163 W/m² | - |
| 1777728250 | 13.33° C | 86% | 1021.1 hPa | 0 mm | - | 143 W/m² | - |
| 1777727947 | 13.33° C | 84% | 1021 hPa | 0 mm | - | 131 W/m² | - |
| 1777727644 | 13.33° C | 86% | 1021.1 hPa | 0 mm | - | 120 W/m² | - |
| 1777727341 | 13.33° C | 85% | 1020.8 hPa | 0 mm | - | 84 W/m² | - |
| 1777726735 | 12.78° C | 85% | 1020.7 hPa | 0 mm | - | 59 W/m² | - |
| 1777726433 | 12.22° C | 87% | 1020.6 hPa | 0 mm | - | 51 W/m² | - |
| 1777726129 | 12.22° C | 87% | 1020.6 hPa | 0 mm | - | 41 W/m² | - |
| 1777725524 | 12.22° C | 88% | 1020.3 hPa | 0 mm | - | 32 W/m² | - |
| 1777725221 | 11.67° C | 89% | 1020.5 hPa | 0 mm | - | 29 W/m² | - |
| 1777724918 | 11.67° C | 89% | 1020.4 hPa | 0 mm | - | 27 W/m² | - |
| 1777724614 | 11.67° C | 89% | 1020.5 hPa | 0 mm | - | 23 W/m² | - |
| 1777724313 | 11.67° C | 89% | 1020.5 hPa | 0 mm | - | 21 W/m² | - |
* Rain latest hour (hover to see other rain measurements)
** Current wind speed in m/s (hover to see current wind gust speed)